Precipitable_Water
1.42 1.39 1.41 1.41 1.42 1.39 1.36 1.37 1.36 1.36 1.34 1.31 1.25 1.21 1.20 1.23 1.27 1.30 1.36 1.37 1.41 1.41 1.40 1.42 1.45 1.45 1.41 1.38 1.35 1.33 1.31 1.31 1.32 1.34 1.36 1.34 1.29 1.21 1.18 1.16 1.11 1.08 1.08 1.10 1.13 1.10 1.07 1.08 1.09 1.09 1.11 1.09 1.09 1.09 1.10 1.15 1.20 1.23 1.26 1.23 1.17 1.16 1.09 1.00 0.89 0.87 0.99 1.12 1.10 1.10 1.19 1.23 1.19 1.25 1.22 1.22 1.23 1.26 1.28 1.29 1.30 1.26 1.23 1.19 1.15
1.42 1.40 1.41 1.41 1.40 1.40 1.39 1.38 1.37 1.35 1.31 1.29 1.25 1.21 1.19 1.20 1.25 1.31 1.31 1.35 1.40 1.37 1.38 1.41 1.44 1.44 1.40 1.37 1.37 1.36 1.33 1.31 1.32 1.32 1.33 1.35 1.34 1.31 1.21 1.16 1.14 1.10 1.08 1.06 1.10 1.12 1.08 1.07 1.08 1.10 1.12 1.09 1.10 1.08 1.08 1.12 1.15 1.17 1.22 1.23 1.19 1.16 1.17 1.04 0.96 0.91 0.87 1.03 1.06 1.16 1.17 1.25 1.15 1.29 1.23 1.22 1.22 1.25 1.25 1.29 1.33 1.33 1.27 1.21 1.13
1.46 1.48 1.43 1.38 1.37 1.41 1.42 1.39 1.37 1.33 1.29 1.25 1.21 1.18 1.18 1.19 1.25 1.26 1.27 1.31 1.37 1.37 1.36 1.39 1.40 1.41 1.39 1.39 1.38 1.36 1.34 1.32 1.34 1.33 1.33 1.34 1.34 1.34 1.33 1.27 1.19 1.13 1.08 1.06 1.09 1.12 1.08 1.06 1.08 1.11 1.12 1.07 1.08 1.08 1.09 1.11 1.16 1.17 1.20 1.24 1.20 1.18 1.18 1.14 1.03 0.94 0.93 0.95 1.07 1.07 1.11 1.19 1.19 1.23 1.29 1.29 1.30 1.30 1.27 1.28 1.32 1.35 1.34 1.27 1.17
1.45 1.46 1.44 1.41 1.42 1.42 1.40 1.39 1.35 1.31 1.25 1.22 1.18 1.18 1.19 1.19 1.23 1.24 1.27 1.31 1.31 1.35 1.38 1.39 1.40 1.39 1.37 1.37 1.36 1.33 1.33 1.34 1.34 1.34 1.33 1.35 1.35 1.35 1.37 1.37 1.33 1.23 1.14 1.10 1.09 1.09 1.08 1.06 1.08 1.11 1.12 1.05 1.05 1.07 1.08 1.12 1.15 1.18 1.19 1.22 1.21 1.19 1.21 1.22 1.18 1.08 1.05 1.01 1.08 1.10 1.18 1.19 1.24 1.28 1.30 1.31 1.30 1.31 1.32 1.33 1.37 1.35 1.33 1.29 1.21
1.44 1.44 1.42 1.40 1.42 1.41 1.39 1.40 1.34 1.30 1.25 1.22 1.19 1.19 1.19 1.19 1.20 1.20 1.25 1.27 1.31 1.33 1.37 1.42 1.40 1.38 1.36 1.35 1.34 1.32 1.32 1.34 1.33 1.32 1.33 1.36 1.37 1.38 1.39 1.40 1.39 1.34 1.24 1.16 1.12 1.09 1.08 1.07 1.09 1.13 1.13 1.05 1.03 1.05 1.07 1.08 1.16 1.19 1.18 1.20 1.21 1.24 1.25 1.24 1.21 1.18 1.12 1.09 1.12 1.20 1.27 1.28 1.29 1.27 1.30 1.25 1.29 1.32 1.34 1.31 1.32 1.31 1.29 1.27 1.20
1.42 1.42 1.42 1.39 1.37 1.37 1.38 1.39 1.35 1.31 1.28 1.25 1.23 1.22 1.22 1.20 1.17 1.19 1.23 1.24 1.29 1.33 1.34 1.38 1.39 1.35 1.36 1.36 1.36 1.36 1.38 1.38 1.35 1.33 1.33 1.34 1.37 1.39 1.41 1.41 1.41 1.41 1.37 1.28 1.19 1.14 1.09 1.09 1.11 1.12 1.11 1.05 1.01 1.03 1.07 1.08 1.14 1.18 1.18 1.19 1.21 1.23 1.20 1.20 1.21 1.18 1.16 1.16 1.19 1.17 1.25 1.23 1.23 1.24 1.30 1.32 1.27 1.24 1.25 1.29 1.30 1.28 1.24 1.17 1.11
1.41 1.42 1.42 1.39 1.37 1.35 1.36 1.36 1.37 1.36 1.33 1.29 1.28 1.27 1.23 1.19 1.17 1.15 1.21 1.25 1.27 1.29 1.32 1.35 1.39 1.38 1.38 1.38 1.37 1.38 1.40 1.41 1.39 1.37 1.35 1.36 1.37 1.37 1.38 1.40 1.43 1.45 1.46 1.43 1.35 1.25 1.17 1.13 1.12 1.11 1.08 1.06 1.02 1.02 1.04 1.08 1.12 1.14 1.17 1.17 1.20 1.20 1.18 1.18 1.19 1.17 1.16 1.16 1.20 1.22 1.22 1.27 1.26 1.17 1.29 1.36 1.34 1.31 1.24 1.20 1.14 1.17 1.16 1.10 0.99
1.40 1.41 1.41 1.39 1.36 1.35 1.36 1.38 1.41 1.40 1.39 1.36 1.31 1.27 1.24 1.21 1.18 1.19 1.23 1.24 1.25 1.27 1.29 1.33 1.37 1.39 1.39 1.39 1.40 1.42 1.43 1.42 1.42 1.42 1.41 1.40 1.40 1.40 1.41 1.42 1.44 1.48 1.51 1.52 1.49 1.41 1.31 1.22 1.15 1.12 1.09 1.07 1.03 1.03 1.06 1.07 1.11 1.11 1.16 1.18 1.19 1.18 1.18 1.20 1.22 1.20 1.18 1.17 1.16 1.16 1.22 1.22 1.25 1.28 1.31 1.32 1.27 1.28 1.34 1.27 1.12 1.08 1.08 1.10 1.04
1.36 1.40 1.41 1.38 1.36 1.38 1.41 1.44 1.45 1.44 1.42 1.38 1.32 1.28 1.26 1.23 1.22 1.22 1.23 1.24 1.27 1.28 1.32 1.35 1.36 1.37 1.39 1.40 1.41 1.44 1.44 1.43 1.45 1.44 1.43 1.44 1.45 1.44 1.45 1.48 1.50 1.52 1.56 1.58 1.57 1.53 1.47 1.38 1.26 1.16 1.13 1.12 1.09 1.06 1.08 1.11 1.09 1.07 1.12 1.18 1.19 1.19 1.19 1.22 1.23 1.22 1.20 1.18 1.16 1.21 1.21 1.20 1.20 1.19 1.19 1.20 1.20 1.21 1.31 1.31 1.19 1.18 1.16 1.08 1.04
1.34 1.36 1.36 1.36 1.39 1.44 1.45 1.45 1.45 1.45 1.43 1.37 1.33 1.31 1.29 1.28 1.25 1.22 1.22 1.24 1.26 1.29 1.32 1.35 1.36 1.36 1.36 1.38 1.42 1.44 1.44 1.47 1.48 1.50 1.50 1.49 1.49 1.50 1.53 1.55 1.59 1.61 1.61 1.61 1.61 1.60 1.57 1.55 1.46 1.28 1.15 1.15 1.13 1.08 1.09 1.14 1.17 1.14 1.14 1.19 1.19 1.19 1.19 1.20 1.22 1.23 1.21 1.16 1.15 1.15 1.15 1.16 1.18 1.20 1.21 1.26 1.32 1.36 1.32 1.27 1.16 1.16 1.13 1.03 1.00
1.35 1.35 1.32 1.34 1.41 1.46 1.46 1.45 1.47 1.44 1.42 1.40 1.38 1.35 1.31 1.30 1.26 1.23 1.23 1.24 1.24 1.27 1.30 1.30 1.32 1.36 1.38 1.39 1.39 1.41 1.45 1.48 1.51 1.53 1.54 1.55 1.56 1.56 1.57 1.60 1.65 1.65 1.64 1.61 1.58 1.61 1.62 1.62 1.57 1.47 1.26 1.16 1.17 1.16 1.15 1.15 1.17 1.18 1.20 1.23 1.25 1.23 1.21 1.22 1.25 1.28 1.23 1.17 1.18 1.18 1.18 1.18 1.21 1.26 1.27 1.31 1.35 1.35 1.30 1.24 1.15 1.08 0.99 0.91 0.85
1.31 1.32 1.33 1.38 1.42 1.43 1.44 1.45 1.45 1.44 1.45 1.42 1.38 1.36 1.35 1.32 1.28 1.24 1.23 1.21 1.22 1.26 1.26 1.27 1.32 1.36 1.39 1.41 1.41 1.42 1.45 1.49 1.52 1.53 1.55 1.58 1.61 1.63 1.65 1.65 1.64 1.64 1.67 1.66 1.63 1.61 1.60 1.63 1.63 1.56 1.41 1.24 1.17 1.18 1.18 1.16 1.16 1.17 1.19 1.25 1.29 1.34 1.35 1.32 1.30 1.29 1.26 1.23 1.22 1.23 1.24 1.24 1.25 1.28 1.31 1.33 1.33 1.33 1.31 1.23 1.10 1.01 0.97 0.94 0.94
1.29 1.28 1.33 1.38 1.40 1.42 1.45 1.46 1.45 1.45 1.45 1.45 1.46 1.43 1.36 1.31 1.27 1.24 1.20 1.20 1.23 1.21 1.22 1.26 1.29 1.35 1.38 1.38 1.39 1.44 1.46 1.50 1.52 1.54 1.57 1.60 1.64 1.67 1.67 1.66 1.66 1.69 1.74 1.72 1.66 1.63 1.63 1.63 1.63 1.58 1.49 1.40 1.30 1.22 1.20 1.18 1.16 1.14 1.18 1.25 1.32 1.36 1.40 1.44 1.49 1.47 1.42 1.36 1.31 1.28 1.29 1.31 1.32 1.37 1.42 1.40 1.40 1.29 1.26 1.14 1.07 1.05 1.03 0.99 0.98
1.30 1.28 1.32 1.36 1.39 1.42 1.45 1.45 1.45 1.46 1.49 1.51 1.51 1.45 1.37 1.26 1.23 1.24 1.24 1.26 1.23 1.20 1.22 1.24 1.28 1.33 1.37 1.38 1.40 1.44 1.46 1.50 1.52 1.55 1.58 1.62 1.66 1.68 1.68 1.67 1.70 1.76 1.79 1.76 1.68 1.64 1.67 1.69 1.64 1.56 1.53 1.48 1.38 1.25 1.19 1.19 1.16 1.13 1.16 1.24 1.31 1.38 1.44 1.52 1.51 1.47 1.49 1.42 1.36 1.33 1.45 1.53 1.40 1.43 1.47 1.48 1.42 1.30 1.18 1.07 1.07 1.05 1.05 1.03 1.07
1.23 1.25 1.28 1.33 1.39 1.43 1.45 1.45 1.45 1.49 1.54 1.54 1.52 1.44 1.35 1.27 1.24 1.25 1.25 1.22 1.18 1.18 1.19 1.22 1.27 1.32 1.37 1.40 1.42 1.43 1.47 1.52 1.53 1.56 1.59 1.63 1.68 1.70 1.72 1.74 1.71 1.77 1.85 1.82 1.71 1.68 1.71 1.71 1.67 1.59 1.55 1.52 1.47 1.34 1.24 1.22 1.19 1.13 1.15 1.23 1.31 1.37 1.42 1.46 1.43 1.40 1.41 1.47 1.49 1.49 1.50 1.54 1.47 1.47 1.51 1.53 1.47 1.32 1.22 1.15 1.14 1.13 1.12 1.12 1.06
1.17 1.23 1.27 1.32 1.35 1.39 1.42 1.45 1.48 1.54 1.56 1.55 1.49 1.41 1.35 1.30 1.23 1.25 1.25 1.24 1.26 1.28 1.29 1.29 1.27 1.30 1.37 1.41 1.43 1.43 1.50 1.55 1.56 1.58 1.60 1.65 1.69 1.75 1.76 1.75 1.79 1.81 1.85 1.81 1.71 1.69 1.71 1.74 1.69 1.61 1.56 1.54 1.54 1.48 1.37 1.31 1.23 1.13 1.13 1.23 1.31 1.38 1.40 1.47 1.47 1.51 1.53 1.53 1.52 1.55 1.54 1.54 1.51 1.46 1.47 1.43 1.35 1.28 1.26 1.24 1.20 1.12 1.01 0.91 0.85
1.17 1.22 1.26 1.32 1.38 1.42 1.45 1.46 1.50 1.55 1.56 1.52 1.46 1.41 1.36 1.32 1.31 1.32 1.26 1.23 1.22 1.24 1.24 1.27 1.31 1.33 1.36 1.41 1.42 1.43 1.50 1.56 1.58 1.59 1.62 1.67 1.72 1.75 1.78 1.82 1.80 1.76 1.83 1.83 1.76 1.73 1.77 1.77 1.69 1.60 1.55 1.52 1.57 1.53 1.44 1.38 1.26 1.16 1.17 1.24 1.32 1.34 1.37 1.46 1.49 1.53 1.59 1.62 1.65 1.62 1.58 1.54 1.52 1.47 1.41 1.36 1.31 1.29 1.19 1.05 0.96 0.96 0.87 0.79 0.79
1.14 1.19 1.22 1.30 1.38 1.46 1.53 1.56 1.56 1.57 1.55 1.49 1.46 1.45 1.45 1.41 1.35 1.34 1.25 1.21 1.21 1.23 1.27 1.30 1.34 1.36 1.38 1.40 1.44 1.44 1.50 1.58 1.61 1.61 1.64 1.70 1.73 1.76 1.84 1.82 1.77 1.79 1.86 1.84 1.74 1.67 1.71 1.75 1.68 1.61 1.55 1.55 1.58 1.51 1.44 1.39 1.25 1.18 1.19 1.24 1.26 1.28 1.35 1.40 1.44 1.60 1.65 1.66 1.62 1.55 1.49 1.47 1.44 1.35 1.31 1.27 1.22 1.18 1.06 0.89 0.91 0.90 0.82 0.81 0.77
1.15 1.17 1.20 1.28 1.36 1.44 1.51 1.58 1.61 1.62 1.57 1.53 1.54 1.53 1.49 1.43 1.40 1.41 1.34 1.29 1.25 1.29 1.32 1.31 1.32 1.38 1.41 1.43 1.48 1.50 1.54 1.60 1.64 1.64 1.66 1.71 1.78 1.79 1.85 1.75 1.65 1.67 1.73 1.74 1.73 1.66 1.70 1.71 1.67 1.63 1.60 1.59 1.56 1.49 1.42 1.34 1.23 1.21 1.27 1.26 1.23 1.23 1.27 1.34 1.39 1.42 1.45 1.47 1.47 1.43 1.38 1.37 1.34 1.28 1.22 1.17 1.11 1.05 1.00 0.94 0.95 0.90 0.83 0.81 0.79
1.15 1.21 1.26 1.34 1.41 1.47 1.53 1.55 1.59 1.63 1.61 1.60 1.63 1.62 1.63 1.59 1.51 1.42 1.35 1.33 1.31 1.33 1.33 1.33 1.32 1.36 1.43 1.47 1.50 1.55 1.58 1.61 1.65 1.66 1.68 1.74 1.82 1.83 1.77 1.69 1.63 1.65 1.70 1.71 1.66 1.63 1.68 1.67 1.66 1.64 1.61 1.58 1.53 1.44 1.36 1.30 1.25 1.28 1.25 1.17 1.14 1.17 1.31 1.38 1.43 1.41 1.39 1.38 1.37 1.37 1.32 1.27 1.21 1.16 1.08 1.00 0.98 0.99 0.99 0.99 0.97 0.91 0.83 0.78 0.76
1.17 1.24 1.33 1.39 1.42 1.42 1.47 1.50 1.53 1.63 1.68 1.69 1.70 1.72 1.73 1.66 1.58 1.49 1.39 1.37 1.37 1.35 1.34 1.35 1.37 1.40 1.46 1.50 1.53 1.59 1.64 1.64 1.66 1.67 1.70 1.76 1.80 1.80 1.76 1.72 1.71 1.66 1.63 1.64 1.61 1.55 1.60 1.65 1.69 1.69 1.62 1.55 1.47 1.37 1.29 1.28 1.29 1.24 1.20 1.15 1.18 1.31 1.41 1.39 1.40 1.39 1.34 1.31 1.28 1.24 1.17 1.12 1.06 1.00 0.95 0.93 0.93 0.94 0.95 0.95 0.93 0.89 0.82 0.76 0.71
1.28 1.31 1.34 1.37 1.36 1.34 1.38 1.47 1.52 1.56 1.68 1.79 1.80 1.76 1.77 1.76 1.68 1.58 1.49 1.42 1.36 1.34 1.37 1.39 1.39 1.41 1.47 1.52 1.56 1.61 1.68 1.71 1.69 1.69 1.71 1.74 1.77 1.80 1.76 1.72 1.68 1.63 1.59 1.59 1.57 1.57 1.61 1.65 1.65 1.65 1.58 1.50 1.40 1.32 1.28 1.26 1.26 1.21 1.16 1.21 1.30 1.37 1.38 1.38 1.35 1.31 1.26 1.24 1.18 1.10 1.06 0.99 0.93 0.89 0.88 0.90 0.93 0.94 0.93 0.89 0.87 0.85 0.83 0.79 0.72
1.43 1.41 1.39 1.38 1.39 1.38 1.35 1.38 1.45 1.55 1.60 1.68 1.71 1.73 1.78 1.79 1.78 1.72 1.60 1.49 1.42 1.38 1.38 1.40 1.41 1.41 1.45 1.52 1.59 1.64 1.71 1.74 1.71 1.70 1.72 1.74 1.77 1.77 1.73 1.66 1.64 1.64 1.58 1.53 1.54 1.57 1.62 1.62 1.60 1.57 1.50 1.41 1.34 1.31 1.29 1.24 1.18 1.17 1.22 1.29 1.33 1.37 1.37 1.32 1.27 1.22 1.19 1.13 1.06 0.99 0.92 0.87 0.83 0.81 0.85 0.89 0.93 0.91 0.86 0.84 0.83 0.81 0.79 0.78 0.77
1.46 1.41 1.38 1.37 1.37 1.41 1.47 1.47 1.45 1.52 1.56 1.62 1.65 1.67 1.73 1.77 1.80 1.78 1.70 1.59 1.49 1.42 1.41 1.43 1.43 1.41 1.42 1.47 1.56 1.65 1.74 1.74 1.72 1.72 1.71 1.72 1.73 1.70 1.64 1.61 1.61 1.60 1.60 1.57 1.59 1.58 1.56 1.54 1.48 1.41 1.38 1.35 1.33 1.29 1.19 1.17 1.19 1.25 1.31 1.35 1.38 1.37 1.32 1.26 1.22 1.15 1.08 1.01 0.93 0.85 0.82 0.83 0.82 0.82 0.85 0.89 0.87 0.84 0.82 0.81 0.79 0.77 0.75 0.74 0.73
1.43 1.48 1.46 1.35 1.29 1.30 1.30 1.35 1.42 1.48 1.56 1.61 1.60 1.60 1.61 1.69 1.70 1.77 1.76 1.65 1.57 1.47 1.42 1.43 1.42 1.42 1.44 1.47 1.53 1.64 1.73 1.71 1.69 1.67 1.67 1.68 1.66 1.62 1.58 1.58 1.62 1.64 1.60 1.61 1.58 1.55 1.52 1.46 1.38 1.35 1.33 1.32 1.31 1.29 1.26 1.26 1.31 1.32 1.34 1.35 1.34 1.29 1.27 1.19 1.10 1.04 0.95 0.86 0.82 0.81 0.81 0.83 0.84 0.85 0.88 0.87 0.87 0.86 0.82 0.80 0.79 0.77 0.75 0.72 0.69
1.27 1.24 1.24 1.29 1.30 1.31 1.33 1.35 1.38 1.45 1.57 1.64 1.62 1.65 1.62 1.62 1.66 1.72 1.79 1.74 1.62 1.55 1.48 1.48 1.47 1.46 1.47 1.52 1.58 1.65 1.68 1.64 1.61 1.62 1.62 1.61 1.58 1.55 1.55 1.57 1.59 1.63 1.64 1.58 1.54 1.50 1.45 1.39 1.36 1.35 1.33 1.32 1.29 1.26 1.27 1.31 1.31 1.27 1.29 1.31 1.28 1.22 1.14 1.07 1.01 0.92 0.85 0.83 0.82 0.80 0.82 0.84 0.84 0.85 0.86 0.86 0.82 0.79 0.79 0.75 0.73 0.70 0.67 0.63 0.60
1.15 1.16 1.19 1.23 1.29 1.35 1.36 1.41 1.46 1.50 1.55 1.64 1.70 1.71 1.72 1.73 1.68 1.69 1.71 1.70 1.69 1.63 1.60 1.54 1.51 1.49 1.51 1.56 1.63 1.64 1.60 1.58 1.57 1.55 1.53 1.49 1.46 1.46 1.48 1.50 1.56 1.60 1.57 1.51 1.48 1.44 1.39 1.35 1.31 1.30 1.27 1.29 1.31 1.32 1.31 1.31 1.28 1.26 1.25 1.21 1.16 1.10 1.06 0.99 0.93 0.88 0.86 0.84 0.83 0.83 0.84 0.83 0.84 0.82 0.79 0.77 0.76 0.77 0.77 0.73 0.68 0.64 0.61 0.60 0.58
1.09 1.06 1.08 1.15 1.22 1.27 1.34 1.41 1.47 1.54 1.61 1.65 1.67 1.71 1.75 1.79 1.77 1.69 1.69 1.59 1.59 1.65 1.63 1.61 1.58 1.57 1.58 1.63 1.63 1.57 1.54 1.52 1.48 1.43 1.40 1.38 1.39 1.41 1.42 1.45 1.50 1.53 1.49 1.46 1.43 1.40 1.34 1.31 1.29 1.30 1.30 1.27 1.25 1.25 1.25 1.24 1.23 1.21 1.17 1.12 1.07 1.03 1.00 0.98 0.96 0.93 0.91 0.89 0.86 0.84 0.81 0.80 0.76 0.75 0.76 0.75 0.75 0.76 0.75 0.69 0.63 0.58 0.58 0.58 0.55
1.27 1.26 1.27 1.28 1.26 1.32 1.35 1.38 1.42 1.44 1.53 1.68 1.77 1.76 1.67 1.67 1.77 1.86 1.92 1.94 1.73 1.67 1.70 1.69 1.73 1.76 1.76 1.67 1.54 1.46 1.46 1.42 1.42 1.46 1.42 1.40 1.38 1.34 1.35 1.40 1.49 1.51 1.48 1.44 1.40 1.35 1.29 1.25 1.23 1.21 1.19 1.16 1.15 1.14 1.14 1.12 1.11 1.11 1.07 1.03 1.00 0.98 0.96 0.93 0.89 0.88 0.89 0.87 0.81 0.77 0.75 0.75 0.73 0.75 0.75 0.74 0.74 0.72 0.70 0.63 0.60 0.57 0.57 0.57 0.52
1.31 1.33 1.38 1.38 1.39 1.41 1.42 1.45 1.52 1.59 1.63 1.55 1.54 1.65 1.73 1.70 1.73 1.80 1.99 2.10 2.10 2.05 1.95 1.85 1.86 1.87 1.79 1.70 1.62 1.47 1.38 1.40 1.46 1.43 1.41 1.39 1.38 1.40 1.45 1.52 1.56 1.50 1.44 1.41 1.36 1.25 1.21 1.17 1.14 1.11 1.11 1.11 1.09 1.07 1.06 1.03 1.00 0.98 0.97 0.97 0.97 0.96 0.95 0.93 0.92 0.90 0.89 0.85 0.80 0.76 0.73 0.72 0.71 0.74 0.75 0.72 0.69 0.66 0.63 0.58 0.56 0.58 0.54 0.50 0.47
1.29 1.34 1.40 1.41 1.42 1.44 1.47 1.49 1.50 1.49 1.48 1.49 1.52 1.48 1.45 1.58 1.70 1.79 1.85 2.04 2.04 2.14 2.09 2.07 2.03 1.93 1.75 1.57 1.56 1.57 1.53 1.50 1.48 1.44 1.41 1.41 1.42 1.43 1.46 1.52 1.48 1.41 1.38 1.32 1.25 1.17 1.13 1.08 1.08 1.08 1.08 1.08 1.07 1.07 1.04 0.99 0.95 0.92 0.92 0.94 0.95 0.95 0.94 0.93 0.93 0.92 0.87 0.82 0.80 0.78 0.76 0.75 0.74 0.73 0.69 0.65 0.62 0.59 0.57 0.58 0.57 0.55 0.51 0.47 0.44
1.31 1.33 1.38 1.45 1.54 1.58 1.56 1.54 1.57 1.58 1.56 1.55 1.50 1.46 1.44 1.37 1.49 1.69 1.82 1.94 1.98 2.06 2.17 2.03 1.95 1.80 1.68 1.59 1.48 1.41 1.46 1.47 1.43 1.41 1.41 1.43 1.42 1.43 1.51 1.48 1.41 1.36 1.34 1.31 1.17 1.10 1.09 1.06 1.04 1.04 1.05 1.04 1.06 1.06 1.00 0.94 0.92 0.90 0.90 0.90 0.91 0.94 0.92 0.91 0.93 0.89 0.85 0.82 0.79 0.77 0.75 0.72 0.70 0.66 0.63 0.61 0.57 0.55 0.54 0.53 0.53 0.51 0.47 0.45 0.43
1.30 1.33 1.40 1.47 1.52 1.57 1.67 1.76 1.79 1.77 1.70 1.63 1.58 1.58 1.44 1.36 1.25 1.32 1.71 1.89 1.96 1.99 2.00 1.99 1.77 1.58 1.50 1.48 1.49 1.45 1.41 1.41 1.42 1.42 1.44 1.45 1.46 1.53 1.53 1.45 1.38 1.34 1.31 1.22 1.11 1.07 1.08 1.06 1.04 1.04 1.04 1.03 1.05 1.01 0.95 0.92 0.91 0.90 0.91 0.90 0.89 0.90 0.91 0.92 0.91 0.86 0.83 0.81 0.76 0.70 0.67 0.64 0.62 0.60 0.58 0.55 0.54 0.52 0.53 0.52 0.51 0.47 0.44 0.40 0.37
1.26 1.28 1.31 1.34 1.34 1.43 1.61 1.79 1.82 1.80 1.80 1.72 1.65 1.61 1.59 1.46 1.25 1.23 1.28 1.53 1.80 1.90 1.75 1.60 1.54 1.52 1.50 1.49 1.45 1.42 1.45 1.47 1.47 1.46 1.46 1.51 1.56 1.54 1.46 1.37 1.35 1.34 1.28 1.17 1.11 1.07 1.08 1.06 1.04 1.02 1.02 1.02 0.98 0.94 0.92 0.91 0.91 0.91 0.91 0.91 0.89 0.89 0.88 0.87 0.81 0.76 0.72 0.67 0.62 0.61 0.60 0.58 0.57 0.55 0.54 0.54 0.54 0.53 0.51 0.48 0.45 0.41 0.39 0.36 0.28
1.28 1.32 1.37 1.45 1.53 1.59 1.63 1.70 1.78 1.82 1.83 1.84 1.74 1.74 1.68 1.68 1.63 1.67 1.66 1.59 1.53 1.44 1.39 1.42 1.46 1.48 1.45 1.45 1.45 1.47 1.50 1.51 1.50 1.48 1.50 1.55 1.51 1.46 1.38 1.30 1.22 1.21 1.20 1.16 1.13 1.11 1.08 1.05 1.02 1.01 0.99 0.94 0.91 0.90 0.89 0.90 0.89 0.88 0.87 0.86 0.84 0.82 0.79 0.75 0.71 0.68 0.64 0.61 0.59 0.57 0.57 0.56 0.55 0.54 0.52 0.50 0.49 0.46 0.44 0.42 0.40 0.39 0.35 0.28 0.24
1.33 1.39 1.44 1.50 1.55 1.62 1.77 1.85 1.83 1.77 1.85 1.85 1.92 1.94 1.93 1.84 1.73 1.69 1.62 1.57 1.42 1.32 1.32 1.34 1.37 1.42 1.46 1.47 1.46 1.51 1.54 1.50 1.42 1.48 1.53 1.50 1.43 1.39 1.26 1.22 1.19 1.16 1.11 1.12 1.12 1.13 1.11 1.07 1.02 0.98 0.93 0.89 0.89 0.88 0.89 0.87 0.87 0.86 0.86 0.84 0.80 0.75 0.72 0.69 0.65 0.62 0.59 0.57 0.55 0.54 0.53 0.52 0.51 0.50 0.49 0.47 0.44 0.42 0.40 0.39 0.38 0.36 0.30 0.25 0.25
1.37 1.39 1.46 1.52 1.54 1.60 1.72 1.80 1.87 1.98 2.00 1.93 1.82 1.75 1.63 1.50 1.48 1.45 1.38 1.41 1.34 1.31 1.27 1.30 1.34 1.36 1.40 1.40 1.46 1.49 1.47 1.45 1.49 1.51 1.51 1.45 1.41 1.37 1.30 1.25 1.19 1.15 1.11 1.11 1.11 1.10 1.06 1.03 0.99 0.92 0.88 0.86 0.87 0.87 0.87 0.86 0.87 0.86 0.85 0.81 0.76 0.71 0.67 0.63 0.60 0.57 0.54 0.53 0.51 0.50 0.48 0.47 0.47 0.46 0.44 0.40 0.39 0.39 0.38 0.38 0.36 0.30 0.26 0.24 0.24
1.29 1.33 1.41 1.52 1.65 1.71 1.63 1.64 1.62 1.66 1.71 1.61 1.61 1.56 1.50 1.47 1.44 1.41 1.38 1.35 1.32 1.29 1.26 1.27 1.28 1.23 1.21 1.28 1.41 1.40 1.39 1.46 1.52 1.49 1.45 1.39 1.33 1.30 1.26 1.20 1.13 1.08 1.07 1.08 1.07 1.04 0.99 0.94 0.90 0.86 0.86 0.87 0.86 0.87 0.87 0.87 0.87 0.84 0.80 0.76 0.72 0.68 0.65 0.61 0.57 0.54 0.51 0.48 0.46 0.46 0.45 0.45 0.44 0.43 0.40 0.38 0.37 0.37 0.36 0.35 0.31 0.25 0.23 0.23 0.23
1.28 1.31 1.39 1.45 1.50 1.53 1.64 1.58 1.58 1.53 1.49 1.46 1.45 1.43 1.40 1.44 1.46 1.41 1.36 1.32 1.29 1.26 1.24 1.23 1.22 1.17 1.17 1.21 1.26 1.40 1.45 1.41 1.35 1.31 1.32 1.33 1.34 1.31 1.23 1.15 1.09 1.07 1.06 1.04 1.01 0.97 0.91 0.87 0.86 0.86 0.87 0.88 0.89 0.89 0.88 0.87 0.85 0.81 0.77 0.73 0.69 0.65 0.60 0.55 0.51 0.48 0.46 0.44 0.44 0.45 0.44 0.44 0.42 0.40 0.38 0.37 0.36 0.36 0.34 0.31 0.27 0.23 0.21 0.21 0.22
1.28 1.28 1.32 1.37 1.41 1.47 1.50 1.52 1.49 1.50 1.48 1.42 1.39 1.41 1.40 1.41 1.39 1.36 1.31 1.27 1.25 1.24 1.21 1.18 1.19 1.21 1.26 1.31 1.36 1.40 1.34 1.31 1.33 1.35 1.34 1.33 1.29 1.23 1.15 1.10 1.08 1.06 1.03 0.99 0.95 0.91 0.88 0.86 0.86 0.87 0.88 0.89 0.89 0.89 0.89 0.87 0.83 0.78 0.73 0.68 0.63 0.57 0.54 0.50 0.46 0.44 0.44 0.44 0.44 0.44 0.43 0.42 0.40 0.39 0.38 0.37 0.36 0.35 0.32 0.28 0.25 0.23 0.23 0.23 0.24
1.39 1.36 1.36 1.37 1.38 1.39 1.41 1.44 1.44 1.45 1.48 1.50 1.46 1.43 1.41 1.40 1.39 1.36 1.34 1.31 1.28 1.25 1.24 1.24 1.27 1.30 1.36 1.43 1.47 1.43 1.37 1.34 1.36 1.37 1.36 1.30 1.24 1.15 1.13 1.13 1.10 1.05 1.01 0.96 0.92 0.89 0.87 0.87 0.88 0.89 0.90 0.90 0.90 0.90 0.89 0.84 0.78 0.73 0.67 0.62 0.56 0.51 0.47 0.45 0.43 0.43 0.43 0.43 0.43 0.42 0.41 0.41 0.40 0.39 0.37 0.37 0.36 0.33 0.30 0.28 0.25 0.23 0.23 0.24 0.26
1.47 1.47 1.41 1.41 1.41 1.39 1.37 1.38 1.44 1.48 1.48 1.47 1.45 1.43 1.39 1.34 1.32 1.31 1.29 1.29 1.25 1.24 1.25 1.26 1.30 1.39 1.48 1.48 1.49 1.48 1.46 1.47 1.46 1.40 1.33 1.26 1.21 1.20 1.19 1.15 1.11 1.03 0.97 0.94 0.93 0.91 0.90 0.91 0.91 0.91 0.90 0.90 0.91 0.89 0.85 0.79 0.73 0.66 0.59 0.53 0.48 0.46 0.44 0.42 0.42 0.42 0.42 0.42 0.41 0.41 0.40 0.40 0.39 0.38 0.38 0.37 0.34 0.31 0.27 0.24 0.22 0.22 0.23 0.24 0.26
1.48 1.48 1.50 1.46 1.39 1.39 1.38 1.38 1.41 1.41 1.43 1.45 1.41 1.41 1.38 1.32 1.28 1.28 1.25 1.28 1.27 1.24 1.25 1.32 1.42 1.47 1.48 1.47 1.46 1.43 1.41 1.40 1.37 1.35 1.31 1.28 1.28 1.24 1.18 1.12 1.06 1.02 1.00 1.00 0.99 0.98 0.96 0.94 0.92 0.92 0.92 0.92 0.91 0.87 0.81 0.73 0.67 0.60 0.54 0.49 0.46 0.45 0.43 0.42 0.42 0.41 0.41 0.41 0.40 0.39 0.39 0.38 0.37 0.35 0.34 0.33 0.31 0.27 0.24 0.21 0.20 0.21 0.23 0.25 0.27
1.50 1.52 1.49 1.48 1.42 1.36 1.38 1.36 1.32 1.31 1.34 1.35 1.35 1.36 1.36 1.36 1.31 1.33 1.29 1.28 1.30 1.38 1.44 1.42 1.44 1.41 1.40 1.40 1.38 1.35 1.32 1.31 1.32 1.31 1.29 1.27 1.24 1.19 1.13 1.06 1.02 1.01 1.01 1.01 1.00 0.98 0.96 0.94 0.93 0.94 0.94 0.92 0.90 0.84 0.77 0.71 0.64 0.56 0.51 0.47 0.45 0.44 0.43 0.42 0.41 0.41 0.41 0.39 0.38 0.37 0.36 0.35 0.32 0.30 0.29 0.29 0.27 0.23 0.19 0.18 0.19 0.21 0.24 0.26 0.28
1.53 1.50 1.48 1.46 1.45 1.40 1.39 1.41 1.40 1.38 1.37 1.36 1.33 1.35 1.33 1.31 1.30 1.32 1.32 1.34 1.36 1.36 1.35 1.34 1.38 1.36 1.33 1.31 1.30 1.30 1.32 1.32 1.31 1.28 1.25 1.22 1.17 1.12 1.07 1.02 1.02 1.01 1.00 0.98 0.98 0.95 0.95 0.96 0.95 0.93 0.90 0.89 0.85 0.79 0.73 0.66 0.59 0.53 0.49 0.46 0.44 0.43 0.42 0.42 0.42 0.41 0.39 0.37 0.35 0.34 0.32 0.30 0.27 0.26 0.24 0.23 0.21 0.18 0.17 0.18 0.20 0.23 0.24 0.26 0.28
1.50 1.50 1.46 1.44 1.48 1.51 1.51 1.47 1.47 1.46 1.43 1.38 1.32 1.29 1.29 1.34 1.35 1.37 1.37 1.41 1.37 1.33 1.31 1.30 1.29 1.27 1.26 1.27 1.29 1.30 1.28 1.27 1.25 1.24 1.21 1.17 1.12 1.08 1.07 1.04 1.01 0.99 0.99 0.99 0.98 0.97 0.98 0.97 0.94 0.91 0.88 0.84 0.80 0.75 0.69 0.61 0.55 0.51 0.49 0.47 0.46 0.45 0.44 0.43 0.42 0.40 0.36 0.33 0.31 0.30 0.29 0.26 0.25 0.22 0.20 0.18 0.18 0.18 0.18 0.20 0.22 0.25 0.26 0.28 0.29
1.39 1.38 1.39 1.40 1.42 1.48 1.54 1.55 1.52 1.48 1.43 1.41 1.38 1.35 1.30 1.27 1.31 1.40 1.43 1.45 1.44 1.38 1.33 1.29 1.26 1.25 1.26 1.25 1.24 1.23 1.24 1.23 1.20 1.17 1.15 1.12 1.08 1.05 1.05 1.03 0.99 0.98 0.99 1.00 0.99 0.99 0.98 0.96 0.93 0.89 0.86 0.82 0.78 0.73 0.66 0.59 0.53 0.49 0.49 0.48 0.46 0.43 0.42 0.41 0.38 0.34 0.30 0.28 0.28 0.26 0.24 0.22 0.21 0.19 0.19 0.18 0.17 0.18 0.19 0.21 0.23 0.25 0.27 0.29 0.30
1.37 1.35 1.33 1.32 1.35 1.41 1.46 1.49 1.49 1.50 1.49 1.45 1.43 1.45 1.44 1.41 1.39 1.44 1.48 1.52 1.50 1.43 1.40 1.34 1.32 1.30 1.27 1.27 1.28 1.27 1.24 1.21 1.18 1.14 1.09 1.05 1.03 1.02 1.03 1.02 0.99 0.99 1.00 0.99 0.99 0.99 0.97 0.94 0.91 0.88 0.85 0.82 0.78 0.71 0.64 0.57 0.52 0.50 0.49 0.47 0.42 0.35 0.31 0.30 0.28 0.27 0.25 0.25 0.24 0.23 0.22 0.19 0.18 0.17 0.17 0.17 0.17 0.17 0.18 0.20 0.24 0.27 0.28 0.29 0.30
1.30 1.31 1.30 1.29 1.29 1.29 1.32 1.38 1.40 1.43 1.45 1.47 1.46 1.47 1.48 1.46 1.43 1.44 1.46 1.45 1.47 1.43 1.39 1.33 1.30 1.27 1.25 1.24 1.24 1.22 1.20 1.16 1.10 1.05 1.03 1.01 1.01 1.01 1.02 1.01 1.02 1.02 1.00 0.99 0.98 0.97 0.95 0.93 0.91 0.89 0.86 0.83 0.78 0.70 0.63 0.57 0.53 0.51 0.49 0.44 0.34 0.29 0.29 0.30 0.29 0.27 0.26 0.25 0.24 0.23 0.21 0.19 0.17 0.17 0.17 0.17 0.17 0.18 0.19 0.23 0.26 0.27 0.29 0.29 0.29
1.18 1.18 1.20 1.23 1.24 1.26 1.30 1.32 1.36 1.38 1.43 1.45 1.46 1.45 1.47 1.46 1.47 1.43 1.40 1.41 1.40 1.40 1.39 1.34 1.30 1.25 1.22 1.19 1.17 1.14 1.11 1.06 1.04 1.03 1.03 1.04 1.04 1.04 1.03 1.03 1.03 1.02 1.00 0.98 0.97 0.96 0.95 0.93 0.90 0.86 0.83 0.80 0.76 0.70 0.64 0.58 0.55 0.53 0.51 0.46 0.45 0.44 0.42 0.39 0.36 0.33 0.31 0.28 0.25 0.23 0.20 0.18 0.17 0.17 0.17 0.17 0.18 0.19 0.22 0.24 0.27 0.29 0.28 0.27 0.27
1.16 1.15 1.16 1.17 1.22 1.26 1.28 1.27 1.25 1.26 1.30 1.31 1.36 1.39 1.42 1.35 1.36 1.35 1.36 1.36 1.36 1.34 1.32 1.29 1.27 1.23 1.19 1.17 1.16 1.13 1.10 1.08 1.08 1.08 1.08 1.08 1.07 1.05 1.03 1.02 1.01 1.01 0.99 0.98 0.97 0.95 0.93 0.90 0.85 0.82 0.81 0.78 0.73 0.68 0.64 0.59 0.57 0.56 0.54 0.51 0.50 0.48 0.47 0.44 0.40 0.38 0.36 0.34 0.30 0.26 0.22 0.19 0.18 0.16 0.16 0.17 0.20 0.22 0.24 0.26 0.28 0.28 0.27 0.27 0.28
Wind_Speed
27 27 27 27 28 28 28 28 28 27 27 27 26 26 26 26 26 25 25 24 23 23 22 22 21 20 19 18 17 16 16 15 14 14 13 13 13 13 13 13 13 14 14 14 15 15 15 15 15 14 14 14 14 13 13 13 13 13 14 14 14 14 14 15 15 16 17 16 16 17 16 16 17 17 17 18 18 19 19 20 21 22 23 23 24
27 27 26 27 27 27 28 28 28 28 27 27 27 27 27 27 27 26 26 25 24 24 23 23 22 21 20 19 18 17 16 16 15 15 15 14 14 13 14 14 14 14 15 15 15 15 16 16 16 15 15 15 15 14 14 14 14 15 15 15 15 15 16 16 16 17 18 18 17 18 18 17 18 18 18 19 19 20 21 21 22 22 23 23 24
27 26 26 27 27 27 27 27 28 28 28 27 27 27 27 27 27 27 27 26 25 25 24 24 22 21 21 20 19 18 17 17 16 16 16 15 15 14 14 14 15 15 16 16 16 16 16 17 17 16 16 16 16 15 15 15 16 16 16 16 16 16 17 17 17 18 19 19 19 19 19 19 19 19 19 20 20 21 21 22 23 23 24 24 24
27 27 27 27 27 27 27 27 27 27 27 27 27 27 27 27 28 28 27 27 26 26 25 24 23 22 21 21 20 19 18 18 17 17 16 16 16 15 15 15 16 16 17 17 17 17 17 17 18 18 17 17 17 17 16 16 17 17 17 17 17 17 18 19 19 19 20 20 20 20 20 20 20 20 20 21 21 22 22 23 24 24 25 25 25
27 27 27 27 27 27 27 27 27 27 27 27 27 27 27 27 28 28 28 27 27 26 26 25 24 23 22 21 20 19 19 18 18 18 17 17 17 17 16 16 16 17 17 18 18 18 18 18 19 18 18 18 18 18 17 17 18 18 18 19 19 19 19 20 20 21 21 21 21 21 21 21 21 22 22 22 23 23 23 24 25 25 25 26 26
28 28 28 27 27 27 27 27 27 27 26 26 27 27 27 28 28 28 28 28 28 27 26 25 25 24 23 22 21 20 20 19 19 19 18 18 18 17 17 17 17 18 18 18 19 19 19 20 19 19 19 19 19 19 19 19 19 19 20 20 20 20 21 21 22 22 22 22 22 22 22 22 23 23 24 24 24 24 25 25 25 25 25 26 26
29 29 28 28 28 27 27 27 27 26 26 26 27 27 27 28 28 29 29 29 28 28 27 26 25 25 24 23 22 21 20 20 20 19 19 19 18 18 18 18 18 18 19 19 19 20 20 20 20 20 20 20 20 20 20 21 21 21 21 21 21 21 22 22 23 23 23 23 22 23 23 24 24 25 25 25 25 25 26 26 26 26 26 26 27
30 30 29 29 29 28 27 27 27 27 27 26 27 27 27 28 29 29 29 29 29 28 27 27 26 25 25 24 23 22 21 21 21 20 20 19 19 19 19 19 19 20 20 20 20 21 21 21 21 21 21 21 21 21 21 22 22 22 22 22 22 22 23 23 23 24 24 23 23 24 24 25 25 25 25 26 26 27 27 27 27 27 27 28 28
31 31 31 30 29 29 28 27 27 27 27 27 27 27 28 28 29 29 30 30 29 29 28 27 27 26 25 24 24 23 22 22 21 21 20 19 19 19 19 20 20 21 21 22 22 22 22 22 22 22 22 22 22 22 22 22 22 23 23 23 23 23 24 24 24 25 25 24 25 25 25 25 26 26 26 27 27 28 28 28 28 29 29 29 29
32 32 31 31 30 30 29 28 28 28 28 28 28 28 28 28 29 29 30 30 30 29 28 28 27 27 26 25 24 24 23 23 22 22 21 20 20 20 20 21 21 22 23 23 23 23 22 23 23 23 23 22 22 22 22 23 23 23 23 23 24 25 25 26 26 26 26 26 26 26 26 26 27 27 27 28 28 29 28 29 30 31 31 31 31
33 33 32 32 31 31 30 30 29 28 28 28 28 28 29 29 29 30 30 30 30 29 29 29 28 28 27 26 25 25 24 23 23 22 22 21 21 21 21 21 22 23 24 24 24 23 23 23 23 23 23 23 23 23 23 23 24 24 24 24 25 26 26 27 27 27 27 27 27 27 27 27 27 28 28 29 29 29 30 30 31 32 32 31 31
34 34 33 32 32 32 31 31 31 30 29 29 29 29 29 30 30 30 30 30 30 30 30 30 29 28 27 27 26 25 25 24 23 23 23 22 22 22 21 22 22 23 24 24 24 24 23 23 23 23 24 24 24 24 24 24 24 25 25 26 26 26 27 27 28 28 28 28 28 28 28 28 28 28 29 29 30 30 30 31 32 32 32 32 31
34 34 34 33 33 33 32 32 32 31 31 30 30 29 30 30 30 31 31 31 31 31 31 30 30 29 28 28 27 26 25 24 24 24 23 23 23 23 22 22 23 23 24 24 24 23 23 23 23 23 23 24 24 25 25 24 25 25 26 26 27 27 28 28 28 28 29 29 28 28 28 28 28 28 29 30 30 30 31 32 33 33 33 33 33
33 34 34 34 34 33 33 33 33 33 32 32 31 30 30 31 31 31 31 31 31 31 31 31 31 30 29 28 27 27 26 25 25 24 24 24 24 24 23 23 23 24 24 23 23 23 23 23 23 23 23 24 25 25 25 25 25 25 25 26 27 27 28 28 28 29 30 29 28 28 28 27 28 29 29 29 30 31 33 34 34 34 34 34 35
32 33 33 34 34 34 34 34 34 34 33 33 33 32 31 31 32 32 32 32 32 32 32 31 31 30 30 29 28 27 26 26 25 25 25 25 25 25 25 24 24 24 24 23 23 23 22 23 23 23 23 24 25 25 25 25 25 25 25 26 26 27 28 28 29 30 29 28 27 27 27 28 28 29 29 29 31 34 35 35 34 35 36 36 36
32 32 33 34 34 35 35 35 35 35 34 34 34 34 33 32 32 32 32 33 33 32 32 32 31 31 30 29 29 28 27 26 26 26 26 26 25 26 26 25 24 24 23 23 23 23 23 24 24 24 24 24 25 25 25 25 25 25 26 26 26 27 28 29 30 29 28 27 26 26 26 27 28 29 30 32 34 35 35 35 35 36 36 37 37
33 33 33 34 34 35 35 36 36 36 36 36 35 35 34 33 32 32 33 33 33 33 33 32 32 31 31 30 29 28 27 27 26 26 26 26 27 27 26 24 24 24 24 24 23 23 24 25 25 25 25 25 25 26 25 25 24 25 25 25 26 27 28 29 29 28 27 25 25 26 27 28 29 31 32 34 35 35 35 36 36 36 37 37 37
34 34 34 34 34 35 36 37 37 37 37 37 37 36 35 34 33 33 33 34 34 34 33 33 32 32 31 31 30 29 28 27 27 27 27 27 28 27 25 24 24 25 24 24 24 24 25 26 26 26 25 25 25 25 25 24 24 24 24 25 26 27 27 28 28 27 25 23 25 27 28 29 30 32 33 34 35 36 36 37 37 36 36 36 36
34 35 35 34 34 35 36 37 38 39 39 38 38 37 36 35 34 34 34 34 34 34 34 34 33 33 32 31 31 30 29 28 28 28 27 27 28 27 25 24 25 25 25 25 26 26 26 27 26 26 25 25 25 25 24 24 23 23 24 25 26 26 27 27 26 25 24 24 26 27 28 29 31 33 34 36 36 36 36 36 35 35 34 34 34
34 35 35 34 34 34 35 36 38 40 40 39 39 38 37 37 36 35 35 35 35 35 35 35 34 33 32 32 31 30 29 28 28 29 28 28 27 27 26 26 26 26 26 26 26 27 27 27 27 26 25 25 24 24 23 22 22 23 24 25 26 26 26 26 25 24 25 26 27 28 29 31 33 34 35 36 36 35 35 34 33 32 32 32 32
35 35 36 36 36 35 35 36 37 39 39 39 39 39 39 38 38 37 36 36 36 36 36 35 35 34 33 32 31 31 30 29 29 29 28 28 27 27 26 26 26 26 26 26 27 27 27 27 26 25 24 24 23 22 22 22 22 23 24 25 26 26 25 24 24 25 25 27 28 29 31 32 33 34 34 34 33 33 32 31 30 30 30 30 30
37 36 36 36 37 37 36 36 36 36 36 37 39 40 40 40 39 38 37 37 37 37 36 36 35 34 33 33 32 31 31 30 30 29 28 28 27 27 27 26 26 26 26 26 27 26 26 26 25 23 22 22 22 21 21 22 22 23 24 25 25 24 24 24 24 25 26 27 29 30 31 32 32 32 32 31 31 30 28 28 28 28 29 29 30
38 38 37 37 38 38 38 38 37 36 36 36 37 39 40 41 41 40 39 38 38 38 37 36 36 35 34 33 32 31 31 31 30 29 29 28 27 27 27 26 25 25 25 26 26 26 25 24 23 22 21 21 21 21 21 22 23 24 24 24 23 23 23 24 25 26 27 28 29 30 31 30 30 30 30 29 29 27 26 27 27 28 29 30 30
39 39 40 40 40 40 40 40 40 40 39 38 37 37 39 40 41 42 41 40 39 39 38 37 36 35 34 33 32 32 32 31 30 30 29 28 27 27 27 26 25 25 25 26 26 26 24 23 22 21 21 20 20 21 21 22 22 23 23 22 22 22 23 24 25 26 27 28 29 30 29 29 29 28 28 27 26 26 26 27 27 28 29 30 30
40 41 41 41 41 42 42 43 43 43 42 42 41 40 39 40 41 42 43 42 41 40 39 38 37 36 35 33 33 33 32 31 30 30 28 28 27 27 26 25 25 25 25 25 25 24 23 21 20 20 20 20 20 21 21 21 21 21 21 21 21 22 23 23 24 25 27 28 28 28 28 28 28 27 26 25 25 26 26 26 27 28 29 30 30
41 42 43 43 43 43 43 44 45 45 44 44 44 43 42 41 41 42 44 44 43 42 40 39 38 36 35 34 34 33 32 31 30 29 28 28 27 27 26 25 25 25 24 24 24 22 21 20 19 19 20 20 20 20 20 20 20 19 19 19 20 21 22 23 25 26 27 28 28 27 27 27 26 25 24 24 25 25 25 26 27 28 29 29 30
40 42 43 44 44 44 44 45 46 46 46 46 46 46 45 43 42 43 44 45 45 44 43 41 39 37 36 35 35 34 33 31 30 29 29 28 27 26 26 26 25 25 24 24 22 21 20 19 19 19 19 19 19 19 19 19 18 18 19 19 20 22 23 24 25 26 27 27 27 27 26 25 24 24 24 24 24 24 25 26 27 28 28 29 29
39 41 42 43 44 45 46 46 47 47 48 48 48 48 47 46 45 45 46 47 47 46 45 43 40 38 37 36 35 34 33 32 31 30 29 28 27 27 27 26 26 25 24 23 21 20 20 19 19 19 18 18 18 18 18 18 18 18 19 20 20 21 23 24 25 26 26 27 26 26 25 24 23 23 23 23 24 24 25 26 26 27 27 27 28
39 41 42 42 43 45 46 47 47 47 48 48 49 50 50 50 50 49 49 49 49 49 47 44 42 40 38 37 36 34 33 32 31 30 29 28 28 27 27 26 26 24 23 22 21 20 20 19 19 18 18 18 18 18 18 18 18 19 19 20 21 22 23 24 25 26 26 26 26 25 23 23 23 23 23 23 23 24 24 25 25 26 26 27 27
39 41 42 43 44 45 46 46 47 47 47 47 48 48 49 51 53 52 50 48 47 48 47 45 43 41 39 38 36 35 34 32 31 30 29 28 27 26 26 26 25 23 21 21 20 20 19 19 19 19 18 18 18 18 17 18 18 19 19 20 21 23 24 25 26 26 26 26 25 23 22 22 22 22 22 22 23 23 23 24 24 25 25 26 26
38 40 42 43 45 46 46 47 48 49 49 49 48 48 47 48 50 52 51 48 45 44 45 44 43 41 39 37 36 34 33 32 30 29 29 28 26 26 26 25 23 21 21 20 20 19 19 19 19 19 19 18 18 18 18 18 18 19 19 20 22 23 24 25 26 26 25 25 23 22 21 21 21 21 21 21 21 22 23 23 24 24 25 25 26
36 38 40 42 44 46 48 49 50 50 51 51 50 48 47 46 45 47 49 47 44 42 41 40 40 39 37 36 34 32 31 30 30 29 29 27 26 25 25 23 22 21 21 20 20 20 19 19 19 19 19 18 18 18 18 18 18 19 20 21 23 24 24 25 25 24 24 23 22 20 20 20 19 20 20 20 21 21 22 23 24 24 25 25 26
33 35 36 38 40 42 46 49 52 52 52 51 50 49 48 47 46 45 46 45 42 38 37 36 36 36 36 34 32 31 30 30 29 29 28 27 27 26 24 22 22 21 21 20 20 20 20 19 19 19 19 18 17 17 18 18 19 19 20 22 23 23 23 23 23 23 22 21 19 18 18 18 18 19 19 20 21 22 22 23 23 24 24 25 25
30 31 33 34 35 36 39 43 45 47 46 46 46 46 45 45 44 44 46 47 43 39 36 34 33 33 34 33 31 30 30 30 29 29 28 27 26 25 22 21 21 21 21 21 21 20 19 19 19 19 18 18 17 18 18 19 19 20 20 21 22 22 22 22 21 21 20 18 17 17 17 18 18 19 19 20 21 21 22 22 23 23 24 24 25
25 26 28 28 29 30 32 31 30 33 35 35 36 37 36 36 35 36 39 44 45 41 36 34 32 31 30 30 30 29 29 29 28 28 28 27 24 22 21 21 21 21 21 21 21 20 20 19 19 19 18 18 18 18 18 18 19 19 20 20 20 20 20 20 20 19 18 17 17 17 17 18 18 19 19 20 20 20 21 22 22 23 23 24 24
19 20 20 21 23 24 24 22 20 22 24 26 26 27 27 27 25 26 31 38 41 38 33 31 30 29 28 28 28 28 28 27 26 26 26 25 23 22 21 21 21 21 21 21 20 20 20 19 19 18 18 17 18 18 18 18 19 19 20 20 20 20 20 20 19 19 18 17 16 17 17 17 18 18 19 19 19 20 21 21 22 23 23 23 23
15 14 14 13 13 13 13 12 13 14 16 17 18 19 20 20 21 25 29 33 34 32 29 28 28 27 27 26 27 26 26 25 25 24 23 23 22 22 21 21 21 21 21 21 20 20 19 19 18 18 17 17 18 18 18 18 18 19 19 19 19 19 19 19 19 18 17 16 16 16 16 17 17 18 18 18 19 20 20 21 22 22 22 22 23
13 12 10 7 5 3 2 4 7 10 12 13 13 14 17 20 23 26 27 28 29 27 25 25 26 26 26 26 25 25 24 24 23 23 22 21 21 21 20 20 20 20 20 20 20 19 19 18 18 17 17 17 17 17 18 18 18 18 19 19 19 19 18 18 18 18 17 16 16 16 16 17 17 17 17 18 18 20 21 21 21 21 22 22 22
10 9 7 5 3 2 2 4 5 7 9 12 14 15 18 20 23 24 25 24 23 21 21 22 24 24 24 24 24 24 24 23 22 22 22 21 21 20 20 20 20 20 20 19 19 19 18 18 17 17 18 18 18 18 18 18 18 18 19 19 18 18 18 18 18 17 16 15 15 15 16 16 16 16 17 17 18 19 20 20 20 20 21 22 22
9 8 7 6 5 5 6 6 6 6 7 10 12 15 17 19 20 21 21 21 21 20 20 21 22 23 23 23 24 24 24 23 22 22 22 21 20 20 20 20 20 20 19 19 19 18 18 18 18 18 18 18 18 18 18 18 18 19 19 18 18 18 17 17 17 17 16 15 15 15 16 16 16 16 16 17 18 19 19 19 20 20 21 22 22
8 7 7 7 7 7 7 8 8 8 9 10 11 13 14 16 17 18 19 20 20 20 20 21 22 22 23 23 23 23 23 22 22 22 21 21 21 20 20 20 20 19 19 19 19 18 18 18 18 18 18 18 18 18 17 18 18 19 18 18 17 17 17 17 17 16 16 15 15 15 15 15 15 15 16 16 17 18 18 19 19 20 21 21 22
9 8 8 8 8 9 9 9 10 10 10 11 12 13 14 15 16 18 19 19 20 20 20 20 21 22 23 23 23 22 21 21 21 21 21 21 21 20 20 20 20 20 19 19 19 18 18 18 18 18 18 18 18 17 17 18 18 18 18 17 17 17 17 17 17 16 16 15 15 15 15 15 15 15 16 16 17 18 18 18 19 19 20 21 22
10 9 8 8 8 9 9 10 11 11 12 12 13 14 15 16 16 17 18 18 18 19 19 20 21 21 21 22 22 21 20 21 21 21 21 21 20 20 20 20 20 19 19 19 19 19 19 19 18 18 18 18 18 17 18 18 18 18 18 17 17 17 17 16 16 16 16 15 15 15 15 15 15 15 16 16 17 17 18 18 18 19 20 21 21
10 10 9 9 9 9 10 10 11 12 12 13 13 14 15 16 16 17 17 18 19 19 20 20 21 21 21 21 21 20 20 21 21 21 21 21 20 20 20 19 19 19 19 19 19 19 19 19 18 18 18 18 17 17 18 18 18 18 17 17 17 17 16 16 16 16 16 15 15 15 15 15 15 16 16 16 17 17 17 17 18 19 20 20 21
12 12 11 11 11 12 12 12 13 13 13 14 14 15 16 17 17 18 18 19 20 20 21 21 21 21 21 21 20 20 20 20 20 20 20 19 19 19 20 20 19 19 19 19 19 19 19 19 19 18 18 18 17 17 17 17 17 17 17 17 16 16 16 16 16 16 16 15 15 15 15 15 15 16 16 16 16 16 16 17 17 18 19 20 21
14 14 13 13 13 14 14 15 15 15 16 16 16 17 18 19 19 20 20 20 20 20 20 20 20 21 21 21 20 20 19 19 19 19 18 19 20 20 20 20 20 20 20 20 20 20 19 19 19 18 18 18 18 17 17 17 16 16 16 16 16 16 16 16 16 15 15 15 15 15 15 15 15 15 15 15 15 15 16 16 17 18 19 19 20
17 16 16 15 15 16 16 17 17 17 17 17 18 18 18 19 19 19 19 19 19 19 19 19 20 20 20 20 19 19 18 18 18 18 19 19 20 20 21 20 20 20 20 20 20 20 20 19 19 19 18 18 18 17 17 16 16 16 16 16 16 16 15 15 15 15 15 15 15 15 15 15 15 15 15 15 15 15 16 16 17 18 18 19 19
17 17 17 17 17 17 17 17 18 18 19 18 18 18 18 17 17 17 18 18 17 17 17 17 17 17 18 18 18 18 18 18 18 18 19 19 20 20 21 21 20 20 20 20 20 20 20 20 19 19 19 19 18 18 17 16 16 16 16 16 15 15 14 14 14 14 14 14 14 15 15 15 15 15 15 15 15 16 16 16 17 17 18 18 19
16 16 17 16 16 16 16 16 16 17 18 18 18 18 18 18 18 18 19 19 18 18 17 17 16 16 17 17 18 19 19 19 19 19 19 19 20 21 21 21 21 21 21 21 21 21 21 20 20 20 20 19 19 18 17 16 16 15 15 15 14 14 13 13 14 14 14 14 14 15 15 15 15 15 15 15 15 15 16 16 17 17 18 18 19
14 14 15 15 15 16 16 16 16 17 17 17 17 18 18 18 18 18 19 19 19 19 18 18 18 18 18 18 18 19 19 19 19 19 19 20 20 21 21 21 21 22 22 22 22 22 22 21 21 20 20 19 19 18 17 17 16 15 15 14 14 14 14 14 14 14 14 14 14 15 15 15 15 15 15 15 15 15 16 16 17 17 18 18 19
11 12 12 13 13 14 15 16 16 17 17 17 17 18 18 18 18 18 18 18 19 19 20 20 20 20 19 19 19 19 19 19 19 19 19 20 21 21 21 21 22 22 23 23 23 22 22 21 21 20 20 20 19 19 18 17 17 16 16 15 14 14 14 14 14 14 14 14 14 14 15 15 15 15 15 15 15 15 16 16 17 17 17 18 19
Wind_Direction
227 228 229 229 230 230 230 230 231 232 233 234 234 233 232 231 229 229 229 229 228 228 228 228 230 232 234 236 238 241 246 250 254 258 262 267 271 277 282 284 285 287 290 292 294 295 294 295 297 298 298 298 297 297 296 296 298 298 297 295 293 294 296 296 294 294 293 292 290 291 290 290 292 292 292 292 291 291 293 295 295 295 294 293 292
227 228 229 230 230 231 231 231 231 232 232 233 233 232 232 231 229 229 229 229 229 228 229 229 231 232 234 236 239 241 245 249 253 257 260 264 269 274 279 282 284 286 288 289 290 292 292 292 293 294 295 295 294 294 293 294 295 296 297 295 293 292 294 294 293 293 293 292 291 291 291 291 292 293 294 293 293 293 293 295 295 295 294 293 292
227 228 229 230 231 231 231 232 231 231 231 232 232 232 231 230 229 229 228 229 229 229 230 230 231 232 234 237 239 241 245 249 252 256 258 262 267 272 277 280 283 285 287 288 289 289 289 288 288 290 291 291 291 291 291 291 293 294 295 296 295 294 292 292 292 292 292 292 292 291 292 292 292 294 295 295 295 295 294 295 295 296 295 293 292
227 227 229 230 231 231 232 232 231 231 231 231 231 231 230 230 229 228 228 229 229 230 230 231 231 233 235 237 239 242 245 249 252 256 258 262 266 271 275 279 282 285 287 289 289 288 287 285 285 286 287 287 288 288 288 288 290 292 293 296 297 296 294 292 291 291 291 291 291 291 291 292 292 294 295 297 297 296 295 295 295 295 295 294 292
226 227 228 230 231 231 232 232 232 232 231 231 230 230 230 229 229 228 228 229 229 230 230 231 231 233 235 237 239 242 245 248 252 256 259 263 266 270 275 278 281 285 288 289 290 289 287 284 283 284 284 285 285 286 286 286 288 290 291 294 297 297 295 293 292 291 290 289 289 289 290 291 292 293 295 295 296 296 296 296 295 294 293 293 293
226 226 227 229 231 231 232 233 233 232 232 231 231 230 230 230 229 228 228 228 229 230 231 231 232 234 236 237 240 242 245 248 252 256 259 262 265 270 274 278 281 285 288 289 290 290 288 285 283 282 282 282 283 284 285 285 287 289 289 292 295 296 295 293 292 291 290 288 287 288 289 290 291 292 293 294 295 296 297 297 295 294 293 293 293
225 226 227 229 231 232 232 233 233 233 232 232 231 231 231 230 229 228 228 228 229 230 231 232 233 234 236 238 240 242 245 248 252 256 259 262 265 269 273 278 281 285 287 289 289 289 288 286 283 281 281 281 282 283 283 284 286 287 288 290 293 295 295 293 292 291 291 289 287 286 288 289 289 290 292 294 295 296 296 296 295 295 295 295 295
226 227 228 229 231 232 233 233 234 234 233 232 232 232 231 231 230 229 228 228 229 230 231 232 233 235 236 238 240 242 245 249 252 256 259 262 265 270 273 277 281 284 287 289 289 289 288 287 284 281 281 281 281 281 282 283 285 286 287 289 291 293 295 294 292 291 291 289 287 287 288 288 288 289 292 294 294 295 296 296 295 295 295 296 296
226 227 228 230 232 233 233 234 235 235 234 233 233 232 232 231 230 229 229 229 230 231 232 232 233 235 236 238 240 242 245 249 252 256 259 262 266 270 274 277 281 284 287 289 289 289 288 287 284 282 281 280 280 279 280 281 283 285 287 288 289 292 294 294 293 291 290 289 288 287 287 287 288 289 290 292 293 295 296 295 295 295 296 296 297
227 228 229 232 233 233 233 234 235 236 235 234 233 233 232 232 231 230 230 230 231 232 232 232 234 235 236 238 240 243 246 250 252 255 258 262 267 271 275 278 282 285 287 289 290 289 288 287 285 282 280 280 279 278 278 279 282 284 286 287 288 290 292 294 294 293 291 289 288 287 286 286 287 288 289 291 293 295 295 295 295 296 296 296 297
228 229 231 233 234 234 234 235 235 237 237 236 235 234 233 232 232 231 230 230 231 232 232 233 234 235 236 238 240 244 247 250 252 254 258 261 266 271 275 279 283 285 287 289 290 289 288 287 286 283 281 280 280 279 279 279 280 282 284 285 287 289 291 293 295 294 292 290 288 286 285 285 286 287 289 291 292 294 295 295 295 296 296 296 297
229 231 232 233 234 235 235 235 236 237 238 237 236 235 234 233 233 232 232 231 232 232 232 233 235 236 237 239 241 245 248 250 252 255 258 261 265 270 275 279 283 286 288 289 290 290 289 288 287 285 282 281 281 281 281 280 280 282 283 284 286 288 290 292 294 295 294 291 288 286 285 283 284 285 287 289 291 293 295 296 296 296 296 296 296
230 231 233 234 234 235 236 236 236 237 238 238 237 236 235 234 234 233 233 232 232 232 233 234 235 236 238 240 242 246 248 250 252 254 257 261 264 270 275 278 281 286 289 290 290 290 290 289 288 287 284 282 281 282 282 281 281 281 283 284 286 287 288 290 293 294 295 292 287 284 283 282 282 285 287 289 291 293 296 297 297 297 296 296 296
231 231 233 234 235 236 236 237 238 238 238 237 237 237 236 236 235 234 233 233 233 233 233 234 235 236 238 241 243 246 249 250 251 254 257 260 264 268 272 275 280 285 289 290 291 290 289 289 288 288 287 285 283 283 283 282 282 282 283 285 287 288 289 291 293 294 294 291 287 283 282 282 284 287 289 290 292 295 298 298 298 297 297 296 296
233 234 234 235 236 236 236 237 239 238 237 237 237 237 237 237 236 235 234 234 233 233 234 235 236 237 239 241 244 247 249 250 251 253 256 260 264 267 270 272 277 283 287 289 291 291 289 289 289 288 288 287 286 285 284 284 283 283 284 286 287 289 290 291 294 296 293 289 286 284 282 283 285 288 289 291 294 297 299 299 298 298 297 297 296
237 237 237 237 238 238 237 238 238 238 237 236 237 237 238 237 237 235 235 234 234 234 234 235 236 238 240 242 244 247 250 250 251 253 256 259 263 267 268 270 276 283 287 289 290 291 290 290 291 289 288 288 287 286 285 285 283 283 285 286 288 289 290 292 295 296 292 287 285 284 284 285 286 288 289 292 295 298 300 300 299 299 299 298 298
240 239 239 240 240 240 239 239 238 238 237 237 237 238 238 238 237 236 235 235 234 234 235 236 237 238 240 242 244 247 250 251 251 253 256 259 263 267 269 272 278 283 286 288 289 291 290 290 290 289 287 288 287 286 285 284 283 283 285 287 288 290 292 293 296 295 290 285 284 286 287 287 288 290 292 294 297 299 300 300 300 299 299 299 298
241 241 242 242 242 243 242 240 238 238 238 238 238 238 238 238 239 237 236 235 235 235 235 236 238 239 241 243 244 247 251 252 252 253 255 259 263 266 270 275 279 283 286 287 289 292 291 290 289 289 287 287 287 285 283 282 282 284 286 287 289 291 293 295 296 295 290 285 285 288 290 291 291 293 295 297 299 299 300 300 300 300 299 299 298
242 243 244 245 245 244 243 241 239 238 238 238 238 238 238 239 239 238 237 236 236 235 236 237 238 240 241 243 245 247 251 253 253 253 255 259 263 267 271 275 278 282 285 287 289 292 292 289 288 287 286 285 284 283 282 281 282 284 287 288 290 291 293 294 295 293 290 289 289 291 293 293 294 296 298 300 300 300 300 300 300 300 300 300 300
245 245 246 246 246 244 243 242 240 239 239 238 238 237 238 238 238 238 237 237 236 236 236 237 238 240 242 243 245 247 251 253 253 253 255 259 262 266 271 274 278 281 283 285 288 291 291 290 287 285 283 282 281 281 280 280 282 286 288 289 290 291 292 293 293 292 292 291 292 293 294 296 297 299 300 301 301 301 301 301 302 302 302 303 303
247 247 247 246 246 244 243 243 242 240 239 238 237 237 237 238 238 238 238 237 236 236 236 237 239 240 241 243 245 248 250 252 253 253 255 258 261 265 270 275 278 281 282 284 287 290 290 290 288 284 280 280 280 280 279 279 282 286 288 290 291 291 291 292 292 293 293 293 294 295 297 298 300 301 302 302 302 302 303 303 303 304 305 305 305
248 248 247 246 246 245 243 242 242 240 239 238 237 237 237 237 238 238 238 237 236 236 236 237 238 240 241 243 245 248 250 252 253 253 255 258 261 265 270 274 277 280 282 284 287 290 290 290 288 283 279 278 279 278 278 279 282 285 288 290 291 291 291 293 294 294 295 295 296 298 299 301 302 303 303 304 304 304 304 304 304 305 306 306 306
248 248 248 248 247 246 244 242 241 240 239 238 238 237 237 237 237 237 237 237 236 236 236 237 237 239 241 243 245 247 250 251 252 253 255 257 261 265 269 272 275 278 281 285 288 290 289 288 286 283 279 278 278 277 277 280 283 286 289 290 290 290 292 294 295 295 296 297 299 300 301 303 304 304 304 304 304 304 304 305 306 306 307 307 307
249 249 249 249 248 246 245 243 242 241 240 240 240 239 238 237 237 237 236 236 236 236 235 236 237 238 240 242 244 247 249 251 251 251 254 257 261 264 267 269 273 278 281 285 288 288 287 286 284 282 279 278 277 278 280 283 286 288 289 290 290 291 293 294 295 296 297 299 301 302 303 304 305 304 304 304 305 305 306 307 308 308 308 309 309
250 250 250 249 248 247 246 245 244 243 241 240 241 241 240 238 237 236 236 235 235 235 235 236 237 238 239 241 243 246 247 249 249 251 254 258 261 263 265 268 272 277 280 284 287 287 285 283 282 280 279 278 278 280 283 284 287 289 290 290 292 293 295 295 296 298 300 301 303 303 304 304 304 304 304 305 306 307 308 309 310 311 311 311 311
253 252 252 251 250 249 248 246 245 244 242 241 241 241 241 240 238 236 236 235 234 234 235 235 236 238 239 240 242 244 245 246 247 250 255 259 261 262 264 268 272 276 279 283 285 285 283 281 280 279 279 279 279 281 283 285 288 290 291 292 295 296 296 297 298 300 301 303 303 304 304 303 303 303 304 305 306 307 308 309 311 312 312 313 313
255 254 253 253 252 250 249 247 246 245 243 242 241 240 240 240 238 236 235 234 233 233 233 234 235 236 237 239 240 241 242 244 246 251 255 257 260 262 263 267 272 276 279 281 282 282 280 279 279 279 279 278 279 281 284 287 289 291 293 295 296 296 297 298 300 301 303 303 304 304 303 303 303 303 304 305 306 307 308 309 311 312 313 314 314
258 257 256 254 253 251 249 247 245 244 243 242 241 240 239 239 239 238 237 235 233 232 231 232 232 233 235 236 237 239 241 243 246 250 253 255 258 260 262 267 273 276 276 278 278 277 276 277 277 277 277 277 279 282 284 287 290 292 293 294 295 296 298 299 301 302 303 303 304 304 303 302 302 303 305 305 306 307 309 310 312 313 314 316 316
263 261 259 256 254 252 250 248 247 246 244 242 242 241 240 239 239 239 239 236 232 230 229 229 229 231 232 233 235 237 240 243 246 249 251 253 256 258 262 268 273 273 272 272 273 273 273 274 273 273 274 276 279 281 284 287 290 291 292 293 295 298 300 301 302 302 303 303 303 302 301 301 302 304 305 306 307 308 310 311 313 314 316 317 317
265 264 261 259 256 254 252 250 248 247 245 243 242 242 241 240 239 239 239 237 233 229 226 225 226 228 230 232 234 237 240 243 245 246 249 252 254 257 263 269 270 269 268 268 269 271 271 270 269 271 273 275 278 280 283 285 287 289 291 293 296 299 300 301 302 302 302 302 302 301 301 301 302 304 305 306 308 310 311 312 314 315 317 318 318
265 264 263 261 259 256 254 252 249 247 244 242 241 241 240 240 239 239 239 238 235 229 225 223 223 225 227 230 234 238 240 242 243 245 247 250 252 257 264 267 265 263 264 265 268 269 268 267 268 270 272 275 277 279 282 283 285 287 291 295 297 300 301 302 303 302 302 302 301 301 301 301 303 304 306 308 309 311 312 313 315 316 318 319 319
266 266 265 263 261 259 256 253 249 246 243 241 240 239 237 237 238 239 239 238 233 228 224 221 219 221 225 228 232 237 239 239 240 243 245 248 253 258 262 261 259 260 262 264 266 267 265 265 267 269 271 275 277 278 280 282 285 289 293 297 299 301 303 303 303 303 303 302 301 300 301 302 304 306 308 309 311 312 313 314 316 317 319 320 321
271 271 270 269 266 263 261 257 250 243 240 238 236 235 234 235 236 236 235 232 229 224 221 218 217 220 224 227 232 236 236 236 238 242 244 249 255 258 258 256 256 258 259 262 264 265 264 264 266 268 272 275 276 276 279 282 287 291 296 299 302 303 303 303 303 304 304 303 302 301 302 304 306 308 309 311 311 312 313 315 316 318 320 322 323
276 275 274 274 272 270 271 266 252 239 235 234 233 233 233 233 234 233 228 224 221 217 215 215 217 220 224 227 231 233 234 235 239 241 245 251 255 254 253 255 257 257 258 260 262 262 262 263 265 268 271 273 274 276 279 284 289 294 298 301 303 304 304 304 304 305 304 303 302 302 303 305 307 308 310 311 312 313 314 316 318 319 321 323 325
281 279 278 278 275 274 277 272 253 237 232 230 229 231 232 232 234 231 221 212 208 207 209 212 217 220 223 226 229 232 234 237 240 243 247 251 251 248 250 254 256 255 257 260 261 260 260 261 263 266 269 270 272 276 280 285 291 296 299 302 304 304 305 305 305 305 304 303 302 302 304 306 308 309 311 312 314 315 316 317 319 321 322 324 326
288 286 286 283 277 275 275 268 250 235 229 224 224 227 228 228 226 216 202 195 195 197 203 210 215 218 222 227 230 233 235 237 240 244 248 247 244 245 249 253 253 254 256 258 258 258 259 260 263 265 267 268 271 276 281 287 292 296 299 301 303 304 305 305 304 304 304 302 301 302 305 307 309 311 313 313 314 316 317 319 321 322 323 325 326
296 296 296 292 284 279 273 257 235 220 213 214 217 217 213 207 197 188 184 186 188 193 200 208 212 217 223 228 232 233 235 239 242 245 245 242 242 246 251 252 252 253 254 256 256 255 257 259 261 263 264 267 271 277 283 288 293 296 298 301 303 304 304 303 303 304 304 302 302 303 305 307 309 311 312 314 315 317 319 321 322 323 324 326 327
299 300 300 297 290 286 264 208 196 193 194 196 194 189 185 184 181 180 182 185 188 194 204 211 215 219 224 227 230 233 236 241 244 243 240 240 244 248 250 251 251 252 253 254 254 253 254 257 259 260 263 266 271 278 284 289 292 295 298 300 302 303 303 302 302 303 303 302 302 304 306 307 309 310 312 314 316 319 321 322 324 325 326 327 327
297 296 291 279 259 236 197 171 165 164 166 167 167 168 172 176 179 182 184 187 193 202 211 214 216 220 223 227 231 235 237 240 240 238 238 241 245 247 248 249 250 250 251 251 250 251 253 255 257 259 262 267 272 278 284 289 292 295 297 299 300 301 301 300 300 301 301 300 301 304 306 308 309 310 312 315 317 320 322 324 325 326 327 327 328
291 289 275 260 247 239 230 218 205 189 175 171 172 175 177 181 185 190 194 199 206 214 217 218 220 224 228 233 237 238 237 237 236 235 238 241 244 246 246 246 247 248 248 247 248 250 252 254 256 259 263 267 273 279 285 290 293 295 297 298 299 299 298 298 298 299 298 298 300 303 306 308 309 310 313 315 318 320 323 324 325 326 327 328 328
282 279 268 257 248 242 236 228 219 211 204 200 197 197 197 200 203 206 209 213 218 222 224 226 228 232 236 238 238 236 235 234 234 235 238 241 242 243 245 245 246 247 246 245 246 248 251 253 256 260 263 269 275 281 286 290 293 295 296 296 296 296 296 295 296 297 297 298 300 302 304 306 308 310 312 314 317 320 322 323 325 326 327 328 329
270 265 260 256 247 240 234 229 224 219 217 215 215 215 216 217 218 218 220 224 227 229 231 233 236 238 239 236 235 235 235 234 234 237 239 240 241 243 244 246 246 246 245 244 245 248 251 253 256 259 264 270 276 282 287 290 292 294 295 294 294 294 293 292 294 295 295 296 298 300 302 304 306 308 310 313 316 319 321 322 324 326 328 329 330
261 258 257 254 247 237 229 225 223 222 222 222 223 223 224 225 226 227 228 229 232 234 235 237 239 239 235 232 232 235 236 236 236 238 239 239 241 244 245 246 246 246 245 245 247 249 251 254 256 261 266 271 277 283 288 290 292 293 293 292 292 291 290 290 291 292 293 294 296 297 299 301 302 305 307 311 314 317 319 322 324 326 327 329 330
256 256 256 254 249 241 234 230 228 227 227 228 230 231 231 231 232 233 233 234 236 238 239 238 236 234 232 231 234 237 238 238 238 239 239 240 242 244 245 246 245 245 245 246 248 249 251 254 258 263 268 272 277 283 288 290 291 292 292 291 289 288 288 288 289 290 291 291 292 294 296 297 299 302 305 309 312 315 319 321 323 325 327 329 331
257 255 255 253 250 247 245 243 241 237 234 234 235 237 238 238 239 239 240 241 241 240 239 236 233 230 230 231 234 237 238 237 237 237 238 240 242 244 245 244 244 244 245 246 247 249 251 255 259 264 267 272 277 282 286 288 290 290 289 288 287 286 286 287 288 289 289 288 288 290 293 295 298 301 305 308 311 314 317 320 322 324 327 330 332
259 259 259 258 257 254 251 248 246 244 242 242 243 244 244 244 244 244 243 241 238 237 236 234 232 231 230 230 232 234 234 234 233 235 238 242 244 244 243 243 243 244 245 246 247 249 252 256 260 264 267 271 276 280 283 286 287 287 286 285 285 285 285 285 286 286 286 286 287 289 292 294 297 299 303 307 310 313 315 318 321 324 327 329 330
258 259 260 262 262 260 256 253 251 250 248 247 247 247 246 245 245 243 240 237 235 234 233 231 230 229 228 228 229 231 231 232 235 238 242 245 245 243 242 243 244 245 246 247 248 250 253 257 261 264 267 270 274 278 281 284 285 285 283 282 282 282 282 282 283 284 284 285 288 290 293 295 296 298 301 305 308 310 313 316 320 323 325 327 328
258 259 260 261 262 261 259 257 255 253 250 248 246 244 242 241 241 239 236 233 231 227 223 223 225 225 225 226 229 231 233 236 240 243 246 247 246 244 244 244 244 245 246 247 249 251 255 258 260 263 266 269 273 276 279 281 282 282 281 280 280 279 278 278 281 283 283 285 287 290 293 295 296 297 300 303 306 308 311 315 318 321 323 325 326
260 260 259 260 260 258 257 257 256 253 250 246 243 240 240 240 239 237 235 233 229 224 221 223 225 225 225 227 231 234 238 241 244 247 248 248 246 246 246 246 246 246 246 247 249 252 255 257 260 263 265 268 271 273 276 278 279 279 278 278 277 275 274 276 280 282 283 284 286 289 292 294 294 296 299 301 304 306 310 313 316 318 320 322 324
261 260 258 258 258 257 256 256 255 253 251 248 245 243 241 239 237 237 235 230 225 223 224 226 227 228 230 233 236 239 243 245 246 247 248 248 248 247 247 247 247 247 247 248 251 253 255 257 260 262 263 266 268 271 272 274 274 274 273 272 272 272 273 276 280 282 283 283 285 288 291 293 293 295 297 299 301 304 308 311 313 316 318 320 323
261 261 259 259 260 259 258 256 254 254 253 252 248 244 240 237 236 235 231 225 223 225 230 233 235 236 238 239 240 241 243 245 246 247 249 250 250 249 248 247 247 248 248 250 252 254 256 257 259 261 262 264 267 269 270 270 269 269 267 267 269 271 273 276 279 281 281 281 284 288 291 293 294 294 295 297 299 302 305 308 311 313 315 318 320